Regional Weather Roundup
Issued by NWS

Home | Current Version | Previous Version | Graphics & Text | Print | Product List | Glossary Off
Versions: 1 2 3 4 5 6 7 8 9 10 11 12 13 14 15 16 17 18 19 20 21 22 23 24 25 26 27 28 29 30 31 32 33 34 35 36 37 38 39 40 41 42 43 44 45 46 47 48 49 50

000
ASUS43 KMKX 280311
RWRWI

WISCONSIN REGIONAL WEATHER ROUNDUP
NATIONAL WEATHER SERVICE MILWAUKEE/SULLIVAN WI
1000 PM CDT TUE JUN 27 2017

NOTE: "FAIR" INDICATES FEW OR NO CLOUDS BELOW 12,000 FEET WITH NO
SIGNIFICANT WEATHER AND/OR OBSTRUCTIONS TO VISIBILITY.

WIZ001-002-006>008-014>016-023>028-280400-
NORTHWEST WISCONSIN

CITY           SKY/WX    TMP DP  RH WIND       PRES   REMARKS
SUPERIOR ARPT  NOT AVBL
ASHLAND        CLOUDY    64  48  56 S6        29.87R
HAYWARD        CLEAR     60  47  61 S3        29.88S
SIREN          CLEAR     64  46  53 CALM      29.85S
CUMBERLAND     CLEAR     59  45  58 SE9       29.87F
RICE LAKE      CLEAR     62  47  58 SE8       29.90F
CHETEK         CLEAR     62  48  61 SE9       29.89F
LADYSMITH      CLEAR     63  49  59 S5        29.93R
EAU CLAIRE     CLEAR     64  47  53 S7        29.90R
MENOMONIE      CLEAR     61  48  61 SE7       29.89S
NEW RICHMOND   CLEAR     64  44  47 SE7       29.85F
OSCEOLA        CLEAR     66  44  45 SE8       29.87S
$$

WIZ003>005-009-010-017-018-280400-
NORTH CENTRAL WISCONSIN

CITY           SKY/WX    TMP DP  RH WIND       PRES   REMARKS
MANITOWISH WTR CLEAR     56  50  80 S5        29.92R
ARBOR VITAE    CLEAR     60  49  66 S3        29.93R
WOODRUFF       CLEAR     60  49  66 S3        29.93R
RHINELANDER    CLEAR     58  50  75 CALM      29.95R
EAGLE RIVER    CLEAR     59  46  61 CALM      29.94R
LAND O LAKES   CLEAR     57  49  76 CALM      29.95R
PHILLIPS       CLEAR     58  49  70 S5        29.92R
TOMAHAWK       NOT AVBL
MEDFORD        CLEAR     59  49  69 S7        29.94R
MERRILL        CLEAR     61  51  70 CALM      29.95R
$$

WIZ029-030-035-036-043>047-280400-
CENTRAL WISCONSIN

CITY           SKY/WX    TMP DP  RH WIND       PRES   REMARKS
WAUSAU           N/A    N/A N/A N/A MISG      29.94R
MOSINEE        CLEAR     61  52  72 S3        29.97R
MARSHFIELD     CLEAR     59  48  67 SW5       29.95R
STEVENS POINT  PTCLDY    58  48  67 CALM      29.97R
WAUPACA        PTCLDY    60  55  81 CALM      29.97R
WAUTOMA        NOT AVBL
WISC RAPIDS    CLEAR     62  49  62 S5        29.97R
CAMP DOUGLAS   PTCLDY    57  50  77 CALM      29.95R
$$

WIZ011>013-019>022-031-037>040-048>050-280400-
NORTHEAST WISCONSIN

CITY           SKY/WX    TMP DP  RH WIND       PRES   REMARKS
ANTIGO         CLEAR     55  49  80 S7        29.97R
SHAWANO        CLEAR     63  50  63 CALM      29.95S
OCONTO         CLEAR     63  49  61 S3        29.94R
STURGEON BAY     N/A     62  52  69 S8        29.96R
GREEN BAY      CLEAR     64  53  67 S5        29.96R
MANITOWOC      CLEAR     59  51  75 CALM      29.99R
APPLETON       PTCLDY    63  46  55 VRB6      29.96R
CLINTONVILLE   CLEAR     57  48  72 S5        29.96R
OSHKOSH        CLOUDY    61  50  67 S6        29.97R
$$

WIZ032>034-041-042-053>061-280400-
SOUTHWEST WISCONSIN

CITY           SKY/WX    TMP DP  RH WIND       PRES   REMARKS
LA CROSSE      PTCLDY    71  48  43 S3        29.93R
SPARTA         CLEAR     56  50  79 CALM      29.96R
VIROQUA        PTCLDY    63  48  58 S8        29.95R
BOSCOBEL       CLEAR     61  49  64 CALM      29.96R
PRAIRIE DU CHI CLEAR     63  46  52 CALM      29.95R
PLATTEVILLE    CLEAR     61  50  67 SE7       29.99R
$$

WIZ056-057-062-063-064-067-068-280400-
SOUTH CENTRAL WISCONSIN

CITY           SKY/WX    TMP DP  RH WIND       PRES   REMARKS
REEDSBURG      CLEAR     62  48  60 CALM      29.97R
BARABOO/DELLS  CLEAR     59  47  64 S5        29.97R
LONE ROCK      CLEAR     60  51  72 CALM      29.97R
MINERAL POINT  CLEAR     63  46  55 S5        29.98R
MADISON        CLEAR     67  48  50 S7        29.98R
MIDDLETON      CLEAR     64  47  53 CALM      29.99R
WATERTOWN      NOT AVBL
MONROE         PTCLDY    63  46  55 S7        30.00R
JANESVILLE     PTCLDY    63  45  51 S6        30.00R
$$

WIZ051-052-058>065-066-070>072-280400-
SOUTHEAST WISCONSIN

CITY           SKY/WX    TMP DP  RH WIND       PRES   REMARKS
MILWAUKEE      MOCLDY    65  49  56 S10       30.01R
WAUKESHA       NOT AVBL
MILWAUKEE/TIMM CLOUDY    64  46  52 S8        30.01R
RACINE         CLOUDY    64  50  60 S8        30.03R
KENOSHA        CLOUDY    63  48  58 S10       30.02R
FOND DU LAC    CLOUDY    62  49  62 S5        29.98R
SHEBOYGAN      CLEAR     59  53  80 CALM      29.99R
WEST BEND      CLOUDY    57  52  82 CALM      30.00R
JUNEAU         PTCLDY    62  49  60 S6        30.00R
$$

LSZ147-162-280400-
LAKE SUPERIOR

STATION/POSITION TIME  TEMP    WIND        PRES    WAVE
                       AIR SEA DIR/SP/G            HT/PER
                 (UTC) (F)     (DEG/KT/KT) (MB)    (FT/S)
W MID LAKE BUOY  0150   49 39  190/  8/  8 1010.7F   0
DEVILS ISLAND    0200   67     200/  5/  5 1010.3F
SAXON HARBOR     0240   62     200/  1/  3 1011.2R
$$

LMZ867-665-643>646-280400-
LAKE MICHIGAN

STATION/POSITION TIME  TEMP    WIND        PRES    WAVE
                       AIR SEA DIR/SP/G            HT/PER
                 (UTC) (F)     (DEG/KT/KT) (MB)    (FT/S)
CHAMBERS ISLAND  0240   64     150/  4/  6 1013.2S
S GREEN BAY BUOY 0230   68     210/  8/ 10 1013.6R
N MID LAKE BUOY  0250   58 54  180/ 14/ 16 1014.8R   2/ 4
NORTHPORT PIER   0240   61     170/  4/  8 1013.9R
KEWAUNEE LAKESHO 0248   57     200/  5/  6 1014.3R
SHEBOYGAN LAKESH 0300   61     190/ 14/ 16 1015.5R
PORT WASHINGTON  0240   57     190/  5/  9 1016.6R
ATWATER BUOY     0109   61 57  170/ 14/ 16 1015.7F
MILWAUKEE LAKESH 0250   63     170/  5/  6   N/A
S MID LAKE BUOY  0150   63 62  160/ 10/ 12 1016.4F
KENOSHA   LAKESH 0300   63     180/ 10/ 15 1016.3
$$

TC  - TEMPERATURE IN CELSIUS
VSB - VISIBILITY IN STATUTE MILES
WCI - WIND CHILL INDEX
HX  - HEAT INDEX





USA.gov is the U.S. government's official web portal to all federal, state and local government web resources and services.